iso_date,epoch_date,Year,Hour,Min,DOY,POS_DOY,Lat,Lon,BP,Ts,Ta,has_bp,has_ts,has_ta,BuoyID,Buoy_Type,Buoy_Owner,Logistics,Hemisphere
2015-01-13T19:00:28Z,1421175629,2015,19,0,13.792,13.792,-70.4122,-9.1384,990.8,0.1,-999.0,yes,yes,no,300234061180310,SVP,AWI-USIABP,unknown,South
2015-01-13T19:59:31Z,1421179171,2015,20,0,13.833,13.833,-70.413,-9.1482,991.2,0.0,-999.0,yes,yes,no,300234061180310,SVP,AWI-USIABP,unknown,South
2015-01-13T21:00:00Z,1421182800,2015,21,0,13.875,13.875,-70.4144,-9.1612,991.3,-0.1,-999.0,yes,yes,no,300234061180310,SVP,AWI-USIABP,unknown,South
2015-01-13T22:00:28Z,1421186429,2015,22,0,13.917,13.917,-70.4166,-9.1754,991.4,-0.7,-999.0,yes,yes,no,300234061180310,SVP,AWI-USIABP,unknown,South
2015-01-13T22:59:31Z,1421189971,2015,23,0,13.958,13.958,-70.419,-9.1906,991.4,-1.3,-999.0,yes,yes,no,300234061180310,SVP,AWI-USIABP,unknown,South
2015-01-14T00:00:00Z,1421193600,2015,0,0,14.0,14.0,-70.4214,-9.2042,991.3,-1.9,-999.0,yes,yes,no,300234061180310,SVP,AWI-USIABP,unknown,South
2015-01-14T01:00:28Z,1421197229,2015,1,0,14.042,14.042,-70.4234,-9.216,991.3,-2.6,-999.0,yes,yes,no,300234061180310,SVP,AWI-USIABP,unknown,South
2015-01-14T01:59:31Z,1421200771,2015,2,0,14.083,14.083,-70.425,-9.2286,991.5,-2.5,-999.0,yes,yes,no,300234061180310,SVP,AWI-USIABP,unknown,South
2015-01-14T03:00:00Z,1421204400,2015,3,0,14.125,14.125,-70.4262,-9.2394,991.5,-2.9,-999.0,yes,yes,no,300234061180310,SVP,AWI-USIABP,unknown,South
2015-01-14T04:00:28Z,1421208029,2015,4,0,14.167,14.167,-70.4268,-9.2496,991.4,-3.3,-999.0,yes,yes,no,300234061180310,SVP,AWI-USIABP,unknown,South
2015-01-14T04:59:31Z,1421211571,2015,5,0,14.208,14.208,-70.4272,-9.26,991.4,-3.6,-999.0,yes,yes,no,300234061180310,SVP,AWI-USIABP,unknown,South
2015-01-14T06:00:00Z,1421215200,2015,6,0,14.25,14.25,-70.4278,-9.2722,991.3,-3.6,-999.0,yes,yes,no,300234061180310,SVP,AWI-USIABP,unknown,South
2015-01-14T07:00:28Z,1421218829,2015,7,0,14.292,14.292,-70.429,-9.286,991.4,-2.9,-999.0,yes,yes,no,300234061180310,SVP,AWI-USIABP,unknown,South
2015-01-14T07:59:31Z,1421222371,2015,8,0,14.333,14.333,-70.431,-9.3006,991.3,-2.2,-999.0,yes,yes,no,300234061180310,SVP,AWI-USIABP,unknown,South
2015-01-14T09:00:00Z,1421226000,2015,9,0,14.375,14.375,-70.434,-9.3166,991.5,-2.8,-999.0,yes,yes,no,300234061180310,SVP,AWI-USIABP,unknown,South
2015-01-14T10:00:28Z,1421229629,2015,10,0,14.417,14.417,-70.4382,-9.3342,991.6,-3.0,-999.0,yes,yes,no,300234061180310,SVP,AWI-USIABP,unknown,South
2015-01-14T10:59:31Z,1421233171,2015,11,0,14.458,14.458,-70.443,-9.3532,991.5,-2.8,-999.0,yes,yes,no,300234061180310,SVP,AWI-USIABP,unknown,South
2015-01-14T12:00:00Z,1421236800,2015,12,0,14.5,14.5,-70.4482,-9.373,991.3,-2.6,-999.0,yes,yes,no,300234061180310,SVP,AWI-USIABP,unknown,South
2015-01-14T13:00:28Z,1421240429,2015,13,0,14.542,14.542,-70.4534,-9.3948,991.2,-2.0,-999.0,yes,yes,no,300234061180310,SVP,AWI-USIABP,unknown,South
2015-01-14T13:59:31Z,1421243971,2015,14,0,14.583,14.583,-70.4584,-9.4148,991.3,-2.2,-999.0,yes,yes,no,300234061180310,SVP,AWI-USIABP,unknown,South
2015-01-14T15:00:00Z,1421247600,2015,15,0,14.625,14.625,-70.4624,-9.4346,991.2,-2.2,-999.0,yes,yes,no,300234061180310,SVP,AWI-USIABP,unknown,South
2015-01-14T16:00:28Z,1421251229,2015,16,0,14.667,14.667,-70.4658,-9.453,991.0,-2.2,-999.0,yes,yes,no,300234061180310,SVP,AWI-USIABP,unknown,South
2015-01-14T16:59:31Z,1421254771,2015,17,0,14.708,14.708,-70.4686,-9.4714,990.9,-2.6,-999.0,yes,yes,no,300234061180310,SVP,AWI-USIABP,unknown,South
2015-01-14T18:00:00Z,1421258400,2015,18,0,14.75,14.75,-70.4708,-9.4896,991.0,-2.8,-999.0,yes,yes,no,300234061180310,SVP,AWI-USIABP,unknown,South
2015-01-14T19:00:28Z,1421262029,2015,19,0,14.792,14.792,-70.4734,-9.5108,991.2,-2.7,-999.0,yes,yes,no,300234061180310,SVP,AWI-USIABP,unknown,South
2015-01-14T19:59:31Z,1421265571,2015,20,0,14.833,14.833,-70.4756,-9.5306,991.3,-3.0,-999.0,yes,yes,no,300234061180310,SVP,AWI-USIABP,unknown,South
2015-01-14T21:00:00Z,1421269200,2015,21,0,14.875,14.875,-70.4782,-9.551,991.5,-3.2,-999.0,yes,yes,no,300234061180310,SVP,AWI-USIABP,unknown,South
2015-01-14T22:00:28Z,1421272829,2015,22,0,14.917,14.917,-70.4804,-9.5708,991.5,-3.1,-999.0,yes,yes,no,300234061180310,SVP,AWI-USIABP,unknown,South
2015-01-14T22:59:31Z,1421276371,2015,23,0,14.958,14.958,-70.4832,-9.5914,991.6,-2.9,-999.0,yes,yes,no,300234061180310,SVP,AWI-USIABP,unknown,South
2015-01-15T00:00:00Z,1421280000,2015,0,0,15.0,15.0,-70.4864,-9.6126,991.7,-2.9,-999.0,yes,yes,no,300234061180310,SVP,AWI-USIABP,unknown,South
2015-01-15T01:00:28Z,1421283629,2015,1,0,15.042,15.042,-70.4892,-9.6328,991.9,-2.9,-999.0,yes,yes,no,300234061180310,SVP,AWI-USIABP,unknown,South
2015-01-15T01:59:31Z,1421287171,2015,2,0,15.083,15.083,-70.4918,-9.6524,991.7,-3.4,-999.0,yes,yes,no,300234061180310,SVP,AWI-USIABP,unknown,South
2015-01-15T03:00:00Z,1421290800,2015,3,0,15.125,15.125,-70.4944,-9.672,991.9,-3.1,-999.0,yes,yes,no,300234061180310,SVP,AWI-USIABP,unknown,South
2015-01-15T04:00:28Z,1421294429,2015,4,0,15.167,15.167,-70.4972,-9.6914,992.0,-3.0,-999.0,yes,yes,no,300234061180310,SVP,AWI-USIABP,unknown,South
2015-01-15T04:59:31Z,1421297971,2015,5,0,15.208,15.208,-70.5,-9.71,992.1,-2.9,-999.0,yes,yes,no,300234061180310,SVP,AWI-USIABP,unknown,South
2015-01-15T06:00:00Z,1421301600,2015,6,0,15.25,15.25,-70.5028,-9.7276,992.3,-2.8,-999.0,yes,yes,no,300234061180310,SVP,AWI-USIABP,unknown,South
2015-01-15T07:00:28Z,1421305229,2015,7,0,15.292,15.292,-70.5058,-9.7454,992.8,-2.7,-999.0,yes,yes,no,300234061180310,SVP,AWI-USIABP,unknown,South
2015-01-15T07:59:31Z,1421308771,2015,8,0,15.333,15.333,-70.5088,-9.7644,993.3,-2.7,-999.0,yes,yes,no,300234061180310,SVP,AWI-USIABP,unknown,South
2015-01-15T09:00:00Z,1421312400,2015,9,0,15.375,15.375,-70.5118,-9.7848,993.7,-2.9,-999.0,yes,yes,no,300234061180310,SVP,AWI-USIABP,unknown,South
2015-01-15T10:00:28Z,1421316029,2015,10,0,15.417,15.417,-70.5152,-9.8078,993.8,-3.0,-999.0,yes,yes,no,300234061180310,SVP,AWI-USIABP,unknown,South
2015-01-15T10:59:31Z,1421319571,2015,11,0,15.458,15.458,-70.519,-9.8324,994.1,-2.7,-999.0,yes,yes,no,300234061180310,SVP,AWI-USIABP,unknown,South
2015-01-15T12:00:00Z,1421323200,2015,12,0,15.5,15.5,-70.523,-9.8588,994.2,-2.5,-999.0,yes,yes,no,300234061180310,SVP,AWI-USIABP,unknown,South
2015-01-15T13:00:28Z,1421326829,2015,13,0,15.542,15.542,-70.5276,-9.887,994.5,-2.2,-999.0,yes,yes,no,300234061180310,SVP,AWI-USIABP,unknown,South
2015-01-15T13:59:31Z,1421330371,2015,14,0,15.583,15.583,-70.532,-9.9158,994.8,-2.0,-999.0,yes,yes,no,300234061180310,SVP,AWI-USIABP,unknown,South
2015-01-15T15:00:00Z,1421334000,2015,15,0,15.625,15.625,-70.5366,-9.9424,995.1,-1.9,-999.0,yes,yes,no,300234061180310,SVP,AWI-USIABP,unknown,South
2015-01-15T16:00:28Z,1421337629,2015,16,0,15.667,15.667,-70.5406,-9.968,995.1,-1.6,-999.0,yes,yes,no,300234061180310,SVP,AWI-USIABP,unknown,South
2015-01-15T16:59:31Z,1421341171,2015,17,0,15.708,15.708,-70.5448,-9.992,995.3,-1.6,-999.0,yes,yes,no,300234061180310,SVP,AWI-USIABP,unknown,South
2015-01-15T18:00:00Z,1421344800,2015,18,0,15.75,15.75,-70.5486,-10.0144,995.6,-1.6,-999.0,yes,yes,no,300234061180310,SVP,AWI-USIABP,unknown,South
2015-01-15T19:00:28Z,1421348429,2015,19,0,15.792,15.792,-70.552,-10.0364,995.9,-1.6,-999.0,yes,yes,no,300234061180310,SVP,AWI-USIABP,unknown,South
2015-01-15T19:59:31Z,1421351971,2015,20,0,15.833,15.833,-70.5556,-10.0582,996.4,-1.9,-999.0,yes,yes,no,300234061180310,SVP,AWI-USIABP,unknown,South
2015-01-15T21:00:00Z,1421355600,2015,21,0,15.875,15.875,-70.559,-10.0802,996.7,-2.2,-999.0,yes,yes,no,300234061180310,SVP,AWI-USIABP,unknown,South
2015-01-15T22:00:28Z,1421359229,2015,22,0,15.917,15.917,-70.5628,-10.1028,997.0,-2.4,-999.0,yes,yes,no,300234061180310,SVP,AWI-USIABP,unknown,South
2015-01-15T22:59:31Z,1421362771,2015,23,0,15.958,15.958,-70.5666,-10.1254,997.3,-2.5,-999.0,yes,yes,no,300234061180310,SVP,AWI-USIABP,unknown,South
2015-01-16T00:00:00Z,1421366400,2015,0,0,16.0,16.0,-70.5706,-10.1484,997.6,-2.7,-999.0,yes,yes,no,300234061180310,SVP,AWI-USIABP,unknown,South
2015-01-16T01:00:28Z,1421370029,2015,1,0,16.042,16.042,-70.5746,-10.1714,997.8,-2.7,-999.0,yes,yes,no,300234061180310,SVP,AWI-USIABP,unknown,South
2015-01-16T01:59:31Z,1421373571,2015,2,0,16.083,16.083,-70.5784,-10.1936,997.8,-2.7,-999.0,yes,yes,no,300234061180310,SVP,AWI-USIABP,unknown,South
2015-01-16T03:00:00Z,1421377200,2015,3,0,16.125,16.125,-70.582,-10.2144,997.8,-2.8,-999.0,yes,yes,no,300234061180310,SVP,AWI-USIABP,unknown,South
2015-01-16T04:00:28Z,1421380829,2015,4,0,16.167,16.167,-70.5852,-10.2326,998.1,-3.0,-999.0,yes,yes,no,300234061180310,SVP,AWI-USIABP,unknown,South
2015-01-16T04:59:31Z,1421384371,2015,5,0,16.208,16.208,-70.588,-10.2492,998.2,-3.0,-999.0,yes,yes,no,300234061180310,SVP,AWI-USIABP,unknown,South
2015-01-16T06:00:00Z,1421388000,2015,6,0,16.25,16.25,-70.591,-10.2654,998.3,-3.0,-999.0,yes,yes,no,300234061180310,SVP,AWI-USIABP,unknown,South
2015-01-16T07:00:28Z,1421391629,2015,7,0,16.292,16.292,-70.5938,-10.283,998.5,-3.0,-999.0,yes,yes,no,300234061180310,SVP,AWI-USIABP,unknown,South
2015-01-16T07:59:31Z,1421395171,2015,8,0,16.333,16.333,-70.5966,-10.3014,998.6,-2.9,-999.0,yes,yes,no,300234061180310,SVP,AWI-USIABP,unknown,South
2015-01-16T09:00:00Z,1421398800,2015,9,0,16.375,16.375,-70.5994,-10.32,998.6,-2.8,-999.0,yes,yes,no,300234061180310,SVP,AWI-USIABP,unknown,South
2015-01-16T10:00:28Z,1421402429,2015,10,0,16.417,16.417,-70.6024,-10.3382,998.4,-2.7,-999.0,yes,yes,no,300234061180310,SVP,AWI-USIABP,unknown,South
2015-01-16T10:59:31Z,1421405971,2015,11,0,16.458,16.458,-70.6056,-10.3556,998.3,-2.3,-999.0,yes,yes,no,300234061180310,SVP,AWI-USIABP,unknown,South
2015-01-16T12:00:00Z,1421409600,2015,12,0,16.5,16.5,-70.6094,-10.3704,998.3,-1.9,-999.0,yes,yes,no,300234061180310,SVP,AWI-USIABP,unknown,South
2015-01-16T13:00:28Z,1421413229,2015,13,0,16.542,16.542,-70.6128,-10.381,998.4,-1.4,-999.0,yes,yes,no,300234061180310,SVP,AWI-USIABP,unknown,South
2015-01-16T13:59:31Z,1421416771,2015,14,0,16.583,16.583,-70.6156,-10.3864,998.5,-1.1,-999.0,yes,yes,no,300234061180310,SVP,AWI-USIABP,unknown,South
2015-01-16T15:00:00Z,1421420400,2015,15,0,16.625,16.625,-70.618,-10.3892,998.3,-0.8,-999.0,yes,yes,no,300234061180310,SVP,AWI-USIABP,unknown,South
2015-01-16T16:00:28Z,1421424029,2015,16,0,16.667,16.667,-70.6192,-10.392,998.2,-0.6,-999.0,yes,yes,no,300234061180310,SVP,AWI-USIABP,unknown,South
2015-01-16T16:59:31Z,1421427571,2015,17,0,16.708,16.708,-70.6202,-10.3972,997.9,-0.5,-999.0,yes,yes,no,300234061180310,SVP,AWI-USIABP,unknown,South
2015-01-16T18:00:00Z,1421431200,2015,18,0,16.75,16.75,-70.6216,-10.4052,997.7,-0.5,-999.0,yes,yes,no,300234061180310,SVP,AWI-USIABP,unknown,South
2015-01-16T19:00:28Z,1421434829,2015,19,0,16.792,16.792,-70.6232,-10.4142,997.3,-0.5,-999.0,yes,yes,no,300234061180310,SVP,AWI-USIABP,unknown,South
2015-01-16T19:59:31Z,1421438371,2015,20,0,16.833,16.833,-70.6248,-10.4228,997.0,-0.5,-999.0,yes,yes,no,300234061180310,SVP,AWI-USIABP,unknown,South
2015-01-16T21:00:00Z,1421442000,2015,21,0,16.875,16.875,-70.626,-10.4306,996.5,-0.6,-999.0,yes,yes,no,300234061180310,SVP,AWI-USIABP,unknown,South
2015-01-16T22:00:28Z,1421445629,2015,22,0,16.917,16.917,-70.6274,-10.4368,995.9,-0.8,-999.0,yes,yes,no,300234061180310,SVP,AWI-USIABP,unknown,South
2015-01-16T22:59:31Z,1421449171,2015,23,0,16.958,16.958,-70.6284,-10.441,994.9,-1.1,-999.0,yes,yes,no,300234061180310,SVP,AWI-USIABP,unknown,South
2015-01-17T00:00:00Z,1421452800,2015,0,0,17.0,17.0,-70.6294,-10.4428,994.0,-1.3,-999.0,yes,yes,no,300234061180310,SVP,AWI-USIABP,unknown,South
2015-01-17T01:00:28Z,1421456429,2015,1,0,17.042,17.042,-70.6302,-10.442,992.7,-1.6,-999.0,yes,yes,no,300234061180310,SVP,AWI-USIABP,unknown,South
2015-01-17T01:59:31Z,1421459971,2015,2,0,17.083,17.083,-70.6306,-10.4388,991.5,-1.9,-999.0,yes,yes,no,300234061180310,SVP,AWI-USIABP,unknown,South
2015-01-17T03:00:00Z,1421463600,2015,3,0,17.125,17.125,-70.6298,-10.4328,990.1,-2.1,-999.0,yes,yes,no,300234061180310,SVP,AWI-USIABP,unknown,South
2015-01-17T04:00:28Z,1421467229,2015,4,0,17.167,17.167,-70.628,-10.4256,988.5,-2.2,-999.0,yes,yes,no,300234061180310,SVP,AWI-USIABP,unknown,South
2015-01-17T04:59:31Z,1421470771,2015,5,0,17.208,17.208,-70.6246,-10.4166,987.2,-2.2,-999.0,yes,yes,no,300234061180310,SVP,AWI-USIABP,unknown,South
2015-01-17T06:00:00Z,1421474400,2015,6,0,17.25,17.25,-70.6196,-10.4066,985.7,-2.2,-999.0,yes,yes,no,300234061180310,SVP,AWI-USIABP,unknown,South
2015-01-17T07:00:28Z,1421478029,2015,7,0,17.292,17.292,-70.6136,-10.396,984.1,-2.2,-999.0,yes,yes,no,300234061180310,SVP,AWI-USIABP,unknown,South
2015-01-17T07:59:31Z,1421481571,2015,8,0,17.333,17.333,-70.6064,-10.385,982.6,-2.1,-999.0,yes,yes,no,300234061180310,SVP,AWI-USIABP,unknown,South
2015-01-17T09:00:00Z,1421485200,2015,9,0,17.375,17.375,-70.5988,-10.3738,981.4,-1.9,-999.0,yes,yes,no,300234061180310,SVP,AWI-USIABP,unknown,South
2015-01-17T10:00:28Z,1421488829,2015,10,0,17.417,17.417,-70.5918,-10.362,980.5,-1.7,-999.0,yes,yes,no,300234061180310,SVP,AWI-USIABP,unknown,South
2015-01-17T10:59:31Z,1421492371,2015,11,0,17.458,17.458,-70.5854,-10.352,979.6,-1.6,-999.0,yes,yes,no,300234061180310,SVP,AWI-USIABP,unknown,South
2015-01-17T12:00:00Z,1421496000,2015,12,0,17.5,17.5,-70.5796,-10.3434,979.0,-1.4,-999.0,yes,yes,no,300234061180310,SVP,AWI-USIABP,unknown,South
2015-01-17T13:00:28Z,1421499629,2015,13,0,17.542,17.542,-70.5748,-10.3358,978.6,-1.2,-999.0,yes,yes,no,300234061180310,SVP,AWI-USIABP,unknown,South
2015-01-17T13:59:31Z,1421503171,2015,14,0,17.583,17.583,-70.5706,-10.33,978.4,-1.0,-999.0,yes,yes,no,300234061180310,SVP,AWI-USIABP,unknown,South
2015-01-17T15:00:00Z,1421506800,2015,15,0,17.625,17.625,-70.567,-10.3262,978.4,-0.9,-999.0,yes,yes,no,300234061180310,SVP,AWI-USIABP,unknown,South
2015-01-17T16:00:28Z,1421510429,2015,16,0,17.667,17.667,-70.564,-10.3236,978.6,-0.8,-999.0,yes,yes,no,300234061180310,SVP,AWI-USIABP,unknown,South
2015-01-17T16:59:31Z,1421513971,2015,17,0,17.708,17.708,-70.5616,-10.3226,979.1,-0.8,-999.0,yes,yes,no,300234061180310,SVP,AWI-USIABP,unknown,South
2015-01-17T18:00:00Z,1421517600,2015,18,0,17.75,17.75,-70.5592,-10.323,979.4,-1.0,-999.0,yes,yes,no,300234061180310,SVP,AWI-USIABP,unknown,South
2015-01-17T19:00:28Z,1421521229,2015,19,0,17.792,17.792,-70.557,-10.3238,980.0,-1.1,-999.0,yes,yes,no,300234061180310,SVP,AWI-USIABP,unknown,South
2015-01-17T19:59:31Z,1421524771,2015,20,0,17.833,17.833,-70.555,-10.3262,980.7,-1.2,-999.0,yes,yes,no,300234061180310,SVP,AWI-USIABP,unknown,South
2015-01-17T21:00:00Z,1421528400,2015,21,0,17.875,17.875,-70.5534,-10.3292,981.4,-1.3,-999.0,yes,yes,no,300234061180310,SVP,AWI-USIABP,unknown,South
2015-01-17T22:00:28Z,1421532029,2015,22,0,17.917,17.917,-70.553,-10.3332,981.8,-1.5,-999.0,yes,yes,no,300234061180310,SVP,AWI-USIABP,unknown,South
2015-01-17T22:59:31Z,1421535571,2015,23,0,17.958,17.958,-70.5538,-10.3374,982.3,-1.6,-999.0,yes,yes,no,300234061180310,SVP,AWI-USIABP,unknown,South
2015-01-18T00:00:00Z,1421539200,2015,0,0,18.0,18.0,-70.5558,-10.3406,982.9,-1.8,-999.0,yes,yes,no,300234061180310,SVP,AWI-USIABP,unknown,South
2015-01-18T01:00:28Z,1421542829,2015,1,0,18.042,18.042,-70.5586,-10.342,983.4,-2.0,-999.0,yes,yes,no,300234061180310,SVP,AWI-USIABP,unknown,South
2015-01-18T01:59:31Z,1421546371,2015,2,0,18.083,18.083,-70.5616,-10.3424,983.5,-2.1,-999.0,yes,yes,no,300234061180310,SVP,AWI-USIABP,unknown,South
2015-01-18T03:00:00Z,1421550000,2015,3,0,18.125,18.125,-70.5646,-10.3418,983.5,-2.3,-999.0,yes,yes,no,300234061180310,SVP,AWI-USIABP,unknown,South
2015-01-18T04:00:28Z,1421553629,2015,4,0,18.167,18.167,-70.5668,-10.3408,983.4,-2.5,-999.0,yes,yes,no,300234061180310,SVP,AWI-USIABP,unknown,South
2015-01-18T04:59:31Z,1421557171,2015,5,0,18.208,18.208,-70.5682,-10.3398,983.7,-2.5,-999.0,yes,yes,no,300234061180310,SVP,AWI-USIABP,unknown,South
2015-01-18T06:00:00Z,1421560800,2015,6,0,18.25,18.25,-70.5688,-10.3402,983.8,-2.4,-999.0,yes,yes,no,300234061180310,SVP,AWI-USIABP,unknown,South
2015-01-18T07:00:28Z,1421564429,2015,7,0,18.292,18.292,-70.5684,-10.3446,983.7,-2.3,-999.0,yes,yes,no,300234061180310,SVP,AWI-USIABP,unknown,South
2015-01-18T07:59:31Z,1421567971,2015,8,0,18.333,18.333,-70.5682,-10.3528,983.6,-2.2,-999.0,yes,yes,no,300234061180310,SVP,AWI-USIABP,unknown,South
2015-01-18T09:00:00Z,1421571600,2015,9,0,18.375,18.375,-70.5694,-10.3638,983.8,-2.2,-999.0,yes,yes,no,300234061180310,SVP,AWI-USIABP,unknown,South
2015-01-18T10:00:28Z,1421575229,2015,10,0,18.417,18.417,-70.5724,-10.3766,983.8,-2.0,-999.0,yes,yes,no,300234061180310,SVP,AWI-USIABP,unknown,South
2015-01-18T10:59:31Z,1421578771,2015,11,0,18.458,18.458,-70.5762,-10.3912,983.2,-1.8,-999.0,yes,yes,no,300234061180310,SVP,AWI-USIABP,unknown,South
2015-01-18T12:00:00Z,1421582400,2015,12,0,18.5,18.5,-70.5816,-10.4096,983.0,-2.0,-999.0,yes,yes,no,300234061180310,SVP,AWI-USIABP,unknown,South
2015-01-18T13:00:28Z,1421586029,2015,13,0,18.542,18.542,-70.588,-10.4306,982.4,-2.1,-999.0,yes,yes,no,300234061180310,SVP,AWI-USIABP,unknown,South
2015-01-18T13:59:31Z,1421589571,2015,14,0,18.583,18.583,-70.596,-10.455,981.7,-2.2,-999.0,yes,yes,no,300234061180310,SVP,AWI-USIABP,unknown,South
2015-01-18T15:00:00Z,1421593200,2015,15,0,18.625,18.625,-70.6048,-10.4862,980.9,-2.2,-999.0,yes,yes,no,300234061180310,SVP,AWI-USIABP,unknown,South
2015-01-18T16:00:28Z,1421596829,2015,16,0,18.667,18.667,-70.613,-10.5208,979.6,-2.2,-999.0,yes,yes,no,300234061180310,SVP,AWI-USIABP,unknown,South
2015-01-18T16:59:31Z,1421600371,2015,17,0,18.708,18.708,-70.6222,-10.5596,978.6,-2.3,-999.0,yes,yes,no,300234061180310,SVP,AWI-USIABP,unknown,South
2015-01-18T18:00:00Z,1421604000,2015,18,0,18.75,18.75,-70.6324,-10.6044,977.4,-2.4,-999.0,yes,yes,no,300234061180310,SVP,AWI-USIABP,unknown,South
2015-01-18T19:00:28Z,1421607629,2015,19,0,18.792,18.792,-70.643,-10.6548,976.6,-2.4,-999.0,yes,yes,no,300234061180310,SVP,AWI-USIABP,unknown,South
2015-01-18T19:59:31Z,1421611171,2015,20,0,18.833,18.833,-70.654,-10.708,975.7,-2.4,-999.0,yes,yes,no,300234061180310,SVP,AWI-USIABP,unknown,South
2015-01-18T21:00:00Z,1421614800,2015,21,0,18.875,18.875,-70.665,-10.7606,974.7,-2.4,-999.0,yes,yes,no,300234061180310,SVP,AWI-USIABP,unknown,South
2015-01-18T22:00:28Z,1421618429,2015,22,0,18.917,18.917,-70.677,-10.8102,973.8,-2.5,-999.0,yes,yes,no,300234061180310,SVP,AWI-USIABP,unknown,South
2015-01-18T22:59:31Z,1421621971,2015,23,0,18.958,18.958,-70.6908,-10.8574,972.9,-2.5,-999.0,yes,yes,no,300234061180310,SVP,AWI-USIABP,unknown,South
2015-01-19T00:00:00Z,1421625600,2015,0,0,19.0,19.0,-70.7066,-10.9036,972.0,-2.5,-999.0,yes,yes,no,300234061180310,SVP,AWI-USIABP,unknown,South
2015-01-19T01:00:28Z,1421629229,2015,1,0,19.042,19.042,-70.7238,-10.95,971.4,-2.5,-999.0,yes,yes,no,300234061180310,SVP,AWI-USIABP,unknown,South
2015-01-19T01:59:31Z,1421632771,2015,2,0,19.083,19.083,-70.7418,-10.9962,971.2,-2.5,-999.0,yes,yes,no,300234061180310,SVP,AWI-USIABP,unknown,South
2015-01-19T03:00:00Z,1421636400,2015,3,0,19.125,19.125,-70.7592,-11.0402,971.1,-2.5,-999.0,yes,yes,no,300234061180310,SVP,AWI-USIABP,unknown,South
2015-01-19T04:00:28Z,1421640029,2015,4,0,19.167,19.167,-70.7758,-11.08,971.1,-2.4,-999.0,yes,yes,no,300234061180310,SVP,AWI-USIABP,unknown,South
2015-01-19T04:59:31Z,1421643571,2015,5,0,19.208,19.208,-70.7908,-11.1168,971.2,-2.3,-999.0,yes,yes,no,300234061180310,SVP,AWI-USIABP,unknown,South
2015-01-19T06:00:00Z,1421647200,2015,6,0,19.25,19.25,-70.803,-11.1516,971.6,-2.1,-999.0,yes,yes,no,300234061180310,SVP,AWI-USIABP,unknown,South
2015-01-19T07:00:28Z,1421650829,2015,7,0,19.292,19.292,-70.8134,-11.184,972.2,-1.9,-999.0,yes,yes,no,300234061180310,SVP,AWI-USIABP,unknown,South
2015-01-19T07:59:31Z,1421654371,2015,8,0,19.333,19.333,-70.8216,-11.2158,972.6,-1.7,-999.0,yes,yes,no,300234061180310,SVP,AWI-USIABP,unknown,South
2015-01-19T09:00:00Z,1421658000,2015,9,0,19.375,19.375,-70.8288,-11.2526,972.8,-1.5,-999.0,yes,yes,no,300234061180310,SVP,AWI-USIABP,unknown,South
2015-01-19T10:00:28Z,1421661629,2015,10,0,19.417,19.417,-70.8358,-11.2914,973.0,-1.2,-999.0,yes,yes,no,300234061180310,SVP,AWI-USIABP,unknown,South
2015-01-19T10:59:31Z,1421665171,2015,11,0,19.458,19.458,-70.8428,-11.333,972.7,-1.1,-999.0,yes,yes,no,300234061180310,SVP,AWI-USIABP,unknown,South
2015-01-19T12:00:00Z,1421668800,2015,12,0,19.5,19.5,-70.851,-11.3784,972.7,-1.0,-999.0,yes,yes,no,300234061180310,SVP,AWI-USIABP,unknown,South
2015-01-19T13:00:28Z,1421672429,2015,13,0,19.542,19.542,-70.8608,-11.4252,972.8,-0.9,-999.0,yes,yes,no,300234061180310,SVP,AWI-USIABP,unknown,South
2015-01-19T13:59:31Z,1421675971,2015,14,0,19.583,19.583,-70.8716,-11.4712,972.7,-0.9,-999.0,yes,yes,no,300234061180310,SVP,AWI-USIABP,unknown,South
2015-01-19T15:00:00Z,1421679600,2015,15,0,19.625,19.625,-70.8842,-11.5144,972.9,-0.8,-999.0,yes,yes,no,300234061180310,SVP,AWI-USIABP,unknown,South
2015-01-19T16:00:28Z,1421683229,2015,16,0,19.667,19.667,-70.898,-11.5528,972.9,-0.7,-999.0,yes,yes,no,300234061180310,SVP,AWI-USIABP,unknown,South
2015-01-19T16:59:31Z,1421686771,2015,17,0,19.708,19.708,-70.9118,-11.5878,973.1,-0.6,-999.0,yes,yes,no,300234061180310,SVP,AWI-USIABP,unknown,South
2015-01-19T18:00:00Z,1421690400,2015,18,0,19.75,19.75,-70.9236,-11.617,973.3,-0.6,-999.0,yes,yes,no,300234061180310,SVP,AWI-USIABP,unknown,South
2015-01-19T19:00:28Z,1421694029,2015,19,0,19.792,19.792,-70.9328,-11.6428,973.1,-0.7,-999.0,yes,yes,no,300234061180310,SVP,AWI-USIABP,unknown,South
2015-01-19T19:59:31Z,1421697571,2015,20,0,19.833,19.833,-70.938,-11.6658,973.4,-0.7,-999.0,yes,yes,no,300234061180310,SVP,AWI-USIABP,unknown,South
2015-01-19T21:00:00Z,1421701200,2015,21,0,19.875,19.875,-70.9402,-11.6902,973.7,-0.8,-999.0,yes,yes,no,300234061180310,SVP,AWI-USIABP,unknown,South
2015-01-19T22:00:28Z,1421704829,2015,22,0,19.917,19.917,-70.94,-11.7196,973.5,-0.9,-999.0,yes,yes,no,300234061180310,SVP,AWI-USIABP,unknown,South
2015-01-19T22:59:31Z,1421708371,2015,23,0,19.958,19.958,-70.9388,-11.756,973.7,-1.0,-999.0,yes,yes,no,300234061180310,SVP,AWI-USIABP,unknown,South
2015-01-20T00:00:00Z,1421712000,2015,0,0,20.0,20.0,-70.9378,-11.7976,973.7,-1.0,-999.0,yes,yes,no,300234061180310,SVP,AWI-USIABP,unknown,South
2015-01-20T01:00:28Z,1421715629,2015,1,0,20.042,20.042,-70.9382,-11.84,973.7,-1.1,-999.0,yes,yes,no,300234061180310,SVP,AWI-USIABP,unknown,South
2015-01-20T01:59:31Z,1421719171,2015,2,0,20.083,20.083,-70.9408,-11.8832,973.5,-1.2,-999.0,yes,yes,no,300234061180310,SVP,AWI-USIABP,unknown,South
2015-01-20T03:00:00Z,1421722800,2015,3,0,20.125,20.125,-70.9454,-11.9274,973.2,-1.3,-999.0,yes,yes,no,300234061180310,SVP,AWI-USIABP,unknown,South
2015-01-20T04:00:28Z,1421726429,2015,4,0,20.167,20.167,-70.9514,-11.9698,973.3,-1.3,-999.0,yes,yes,no,300234061180310,SVP,AWI-USIABP,unknown,South
2015-01-20T04:59:31Z,1421729971,2015,5,0,20.208,20.208,-70.957,-12.0084,973.4,-1.4,-999.0,yes,yes,no,300234061180310,SVP,AWI-USIABP,unknown,South
2015-01-20T06:00:00Z,1421733600,2015,6,0,20.25,20.25,-70.9618,-12.0424,973.2,-1.4,-999.0,yes,yes,no,300234061180310,SVP,AWI-USIABP,unknown,South
2015-01-20T07:00:28Z,1421737229,2015,7,0,20.292,20.292,-70.9654,-12.0718,973.3,-1.3,-999.0,yes,yes,no,300234061180310,SVP,AWI-USIABP,unknown,South
2015-01-20T07:59:31Z,1421740771,2015,8,0,20.333,20.333,-70.9676,-12.0976,973.8,-1.1,-999.0,yes,yes,no,300234061180310,SVP,AWI-USIABP,unknown,South
2015-01-20T09:00:00Z,1421744400,2015,9,0,20.375,20.375,-70.9682,-12.122,974.0,-0.9,-999.0,yes,yes,no,300234061180310,SVP,AWI-USIABP,unknown,South
2015-01-20T10:00:28Z,1421748029,2015,10,0,20.417,20.417,-70.9678,-12.1466,974.0,-0.7,-999.0,yes,yes,no,300234061180310,SVP,AWI-USIABP,unknown,South
2015-01-20T10:59:31Z,1421751571,2015,11,0,20.458,20.458,-70.9674,-12.1712,974.2,-0.5,-999.0,yes,yes,no,300234061180310,SVP,AWI-USIABP,unknown,South
2015-01-20T12:00:00Z,1421755200,2015,12,0,20.5,20.5,-70.968,-12.1966,974.4,-0.5,-999.0,yes,yes,no,300234061180310,SVP,AWI-USIABP,unknown,South
2015-01-20T13:00:28Z,1421758829,2015,13,0,20.542,20.542,-70.9698,-12.2224,974.7,-0.5,-999.0,yes,yes,no,300234061180310,SVP,AWI-USIABP,unknown,South